Retour au catalogue

FREGAT DEB

LostUNKNOWN
NORAD 45922·DEBRIS·🇷🇺 Russia

Lancé Jul 18, 2011 depuis Baikonur Cosmodrome

Loading…

Prochains Passages (prochaines 24 heures)

TLE

PériméSource: Space-Track

Époque: Mar 30, 2022, 00:53 UTC

1 45922U 11037EL  22089.03744855  .00439600  00000-0  18955+0 0  9990
2 45922  51.7177 214.3603 1748873 172.7715 190.2316 11.37394955 70005

Suivez FREGAT DEB en temps réel avec AllMySat

Download on the App Store